Missoula, MT

3:06 PM MST on December 15, 2017 (GMT -0700)
Missoula International

Weather History for KMSO - November, 2015

Change the Weather History Date:

Wednesday, November 11, 2015

  Actual Average Record
Temperature  
Mean Temperature 35 °F 35 °F  
Max Temperature 41 °F 44 °F 62 °F (1989)
Min Temperature 28 °F 27 °F 0 °F (1911)
Degree Days  
Heating Degree Days 30 30  
Month to date heating degree days 309 306  
Since 1 July heating degree days 1097 1248  
Cooling Degree Days 0 0  
Month to date cooling degree days 0 0  
Year to date cooling degree days 401 332  
Moisture  
Dew Point 27 °F    
Average Humidity 76    
Maximum Humidity 92    
Minimum Humidity 59    
Precipitation  
Precipitation T in 0.03 in 0.80 in (1919)
Month to date precipitation 0.74 0.35  
Year to date precipitation 8.29 12.43  
Snow  
Snow T in - - ()
Month to date snowfall 0.4  
Year to date snowfall 13.7  
Since 1 July snowfall 0.4  
Snow Depth 0.00 in    
Sea Level Pressure  
Sea Level Pressure 30.19 in    
Wind  
Wind Speed 4 mph (North)    
Max Wind Speed 25 mph    
Max Gust Speed 32 mph    
Visibility 10 miles    
Events Rain    
T = Trace of Precipitation, MM = Missing Value Source: NWS Daily Summary

Daily Weather History Graph

Daily Weather History Graph

Search for Another Location

Airport or City:

Trip Planner

Search our weather history database for the weather conditions in past years. The results will help you decide how hot, cold, wet, or windy it might be!

Date:

Astronomy

Nov. 11, 2015 Rise Set
Actual Time 7:33 AM MST 5:06 PM MST
Civil Twilight 7:00 AM MST 5:39 PM MST
Nautical Twilight 6:24 AM MST 6:16 PM MST
Astronomical Twilight 5:48 AM MST 6:51 PM MST
Moon 7:17 AM MST (11/11) 5:32 PM MST (11/11)
Length of Visible Light 10h 38m
Length of Day
9h 33m
New Moon, 0% of the Moon is Illuminated
Nov 11
New Moon
Nov 18
First Quarter
Nov 25
Full
Dec 3
Last Quarter
Dec 11
New

Hourly Weather History & Observations

Time (MST) Temp. Windchill Dew Point Humidity Pressure Visibility Wind Dir Wind Speed Gust Speed Precip Events Conditions
12:53 AM 28.9 °F 22.8 °F 26.1 °F 89% 30.18 in 10.0 mi WSW 5.8 mph - N/A   Overcast
1:53 AM 30.0 °F - 26.1 °F 85% 30.17 in 10.0 mi Calm Calm - N/A   Overcast
2:53 AM 28.9 °F 25.2 °F 26.1 °F 89% 30.17 in 10.0 mi SSE 3.5 mph - N/A   Overcast
3:53 AM 30.0 °F 26.5 °F 26.1 °F 85% 30.18 in 10.0 mi East 3.5 mph - N/A   Mostly Cloudy
4:53 AM 28.0 °F 24.2 °F 26.1 °F 92% 30.18 in 10.0 mi West 3.5 mph - N/A   Overcast
5:53 AM 28.9 °F - 26.1 °F 89% 30.17 in 10.0 mi Calm Calm - N/A   Overcast
6:53 AM 28.0 °F 22.8 °F 26.1 °F 92% 30.17 in 10.0 mi SE 4.6 mph - N/A   Mostly Cloudy
7:53 AM 30.0 °F 21.7 °F 25.0 °F 82% 30.17 in 10.0 mi ESE 9.2 mph - N/A   Mostly Cloudy
8:53 AM 30.0 °F 25.2 °F 25.0 °F 82% 30.18 in 10.0 mi Variable 4.6 mph - N/A   Scattered Clouds
9:53 AM 32.0 °F - 27.0 °F 82% 30.16 in 10.0 mi Calm Calm - N/A   Overcast
10:53 AM 35.1 °F 30.1 °F 24.1 °F 64% 30.14 in 10.0 mi ESE 5.8 mph - N/A   Overcast
11:53 AM 37.9 °F 34.4 °F 24.1 °F 57% 30.13 in 10.0 mi ENE 4.6 mph - N/A   Overcast
12:46 PM 39.0 °F - 26.1 °F 60% 30.05 in 10.0 mi Calm Calm - N/A   Overcast
12:53 PM 39.0 °F - 27.0 °F 62% 30.13 in 10.0 mi Calm Calm - N/A   Overcast
1:53 PM 37.9 °F 35.5 °F 30.9 °F 76% 30.14 in 10.0 mi NNE 3.5 mph - 0.00 in   Overcast
2:53 PM 37.9 °F 35.5 °F 32.0 °F 79% 30.16 in 10.0 mi Variable 3.5 mph - N/A   Mostly Cloudy
3:38 PM 37.9 °F 29.2 °F 32.0 °F 79% 30.11 in 10.0 mi North 15.0 mph - 0.00 in Rain Light Rain
3:53 PM 37.0 °F 28.9 °F 30.9 °F 79% 30.20 in 10.0 mi North 12.7 mph - 0.00 in   Overcast
4:06 PM 35.1 °F 25.9 °F 30.0 °F 82% 30.12 in 10.0 mi North 13.8 mph - 0.00 in   Overcast
4:53 PM 35.1 °F 27.4 °F 28.0 °F 76% 30.22 in 10.0 mi WSW 10.4 mph - 0.00 in   Overcast
5:53 PM 34.0 °F - 28.9 °F 82% 30.23 in 10.0 mi Calm Calm - N/A   Overcast
6:53 PM 32.0 °F - 30.0 °F 92% 30.27 in 10.0 mi Calm Calm - N/A   Mostly Cloudy
7:53 PM 30.9 °F 25.2 °F 28.0 °F 89% 30.27 in 10.0 mi NW 5.8 mph - N/A   Mostly Cloudy
8:53 PM 30.9 °F 27.5 °F 28.0 °F 89% 30.30 in 10.0 mi NW 3.5 mph - N/A   Mostly Cloudy
9:53 PM 30.9 °F 27.5 °F 28.9 °F 92% 30.31 in 10.0 mi SSW 3.5 mph - N/A   Mostly Cloudy
10:53 PM 30.9 °F - 28.0 °F 89% 30.32 in 10.0 mi Calm Calm - N/A   Overcast
11:53 PM 28.9 °F 22.8 °F 27.0 °F 92% 30.32 in 10.0 mi North 5.8 mph - N/A   Scattered Clouds